Location: Couloutre
(47.4081°N, 3.2259°E)
Time: 11:16:00
(UTC+00:00)

Ariane Rocket - Pass Details

Date: 27 February 2020
Orbit: 759 x 771 km, 98.7° (Epoch: 09 April)

Event Time Altitude Azimuth Distance (km) Brightness Sun altitude
Rises 17:47:26 0° 127° (SE) 3,237 5.8 -4.0°
Reaches altitude 10° 17:50:06 10° 114° (ESE) 2,314 5.0 -4.5°
Maximum altitude 17:54:08 24° 61° (ENE) 1,548 4.1 -5.2°
Drops below altitude 10° 17:58:12 10° 8° (N) 2,325 5.4 -5.8°
Sets 18:00:52 0° 356° (N) 3,256 6.2 -6.3°
